Bodrum Milas, Turkey

3:51 AM +03 on December 05, 2016 (GMT +0300)
Bodrum

Weather History for LTFE - October, 2011

Change the Weather History Date:

Tuesday, October 11, 2011

  Actual Average Record
Temperature  
Mean Temperature 65 °F -  
Max Temperature 71 °F - - ()
Min Temperature 59 °F - - ()
Growing Degree Days 15 (Base 50)    
Moisture  
Dew Point 58 °F    
Average Humidity 80    
Maximum Humidity 94    
Minimum Humidity 53    
Precipitation  
Precipitation 0.00 in - - ()
Sea Level Pressure  
Sea Level Pressure 29.73 in    
Wind  
Wind Speed 6 mph ()    
Max Wind Speed 13 mph    
Max Gust Speed 28 mph    
Visibility 6.1 miles    
Events Rain , Thunderstorm    
T = Trace of Precipitation, MM = Missing Value Source: Averaged Metar Reports

Daily Weather History Graph

Daily Weather History Graph

Search for Another Location

Airport or City:

Trip Planner

Search our weather history database for the weather conditions in past years. The results will help you decide how hot, cold, wet, or windy it might be!

Date:

Astronomy

Oct. 11, 2011 Rise Set
Actual Time 7:13 AM EEST 6:38 PM EEST
Civil Twilight 6:46 AM EEST 7:04 PM EEST
Nautical Twilight 6:16 AM EEST 7:34 PM EEST
Astronomical Twilight 5:46 AM EEST 8:05 PM EEST
Moon 6:02 PM EEST (10/11) 6:32 AM EEST (10/11)
Length of Visible Light 12h 17m
Length of Day
11h 25m
Full, 100% of the Moon is Illuminated
Oct 11
Full
Oct 12
Full
Oct 20
Last Quarter
Oct 26
New
Nov 2
First Quarter

Hourly Weather History & Observations

Time (EEST) Temp. Dew Point Humidity Pressure Visibility Wind Dir Wind Speed Gust Speed Precip Events Conditions
12:20 AM 60.8 °F 59.0 °F 94% 29.68 in 6.2 mi SSE 12.7 mph 27.6 mph N/A Rain , Thunderstorm Light Thunderstorms and Rain
12:50 AM 62.6 °F 59.0 °F 88% 29.68 in 6.2 mi SW 9.2 mph - N/A Rain , Thunderstorm Light Thunderstorms and Rain
1:20 AM 62.6 °F 57.2 °F 82% 29.68 in 6.2 mi SW 6.9 mph - N/A Thunderstorm Thunderstorm
1:50 AM 62.6 °F 59.0 °F 88% 29.68 in 6.2 mi East 3.5 mph - N/A Rain , Thunderstorm Light Thunderstorms and Rain
2:20 AM 60.8 °F 59.0 °F 94% 29.68 in 6.2 mi NE 3.5 mph - N/A Thunderstorm Thunderstorm
2:50 AM 59.0 °F 53.6 °F 82% 29.68 in 3.7 mi WSW 8.1 mph 20.7 mph N/A Rain , Thunderstorm Thunderstorms and Rain
3:20 AM 59.0 °F 55.4 °F 88% 29.68 in 6.2 mi Variable 2.3 mph - N/A Thunderstorm Thunderstorm
3:50 AM 59.0 °F 57.2 °F 94% 29.68 in 6.2 mi Variable 1.2 mph - N/A   Mostly Cloudy
4:20 AM 59.0 °F 57.2 °F 94% 29.68 in 6.2 mi Variable 2.3 mph - N/A Rain , Thunderstorm Light Thunderstorms and Rain
4:50 AM 59.0 °F 57.2 °F 94% 29.68 in 6.2 mi East 5.8 mph - N/A   Mostly Cloudy
5:20 AM 59.0 °F 57.2 °F 94% 29.68 in 6.2 mi ESE 4.6 mph - N/A   Scattered Clouds
5:50 AM 59.0 °F 57.2 °F 94% 29.71 in 6.2 mi SE 6.9 mph - N/A   Mostly Cloudy
6:20 AM 60.8 °F 59.0 °F 94% 29.71 in 6.2 mi ESE 5.8 mph - N/A   Mostly Cloudy
6:50 AM 60.8 °F 57.2 °F 88% 29.71 in 6.2 mi East 6.9 mph - N/A   Mostly Cloudy
7:20 AM 60.8 °F 57.2 °F 88% 29.71 in 6.2 mi East 9.2 mph - N/A   Mostly Cloudy
7:50 AM 60.8 °F 57.2 °F 88% 29.71 in 6.2 mi ESE 8.1 mph - N/A   Mostly Cloudy
8:20 AM 62.6 °F 57.2 °F 82% 29.71 in 6.2 mi East 6.9 mph - N/A   Mostly Cloudy
8:50 AM 62.6 °F 57.2 °F 82% 29.71 in 6.2 mi East 4.6 mph - N/A   Mostly Cloudy
9:20 AM 64.4 °F 59.0 °F 83% 29.74 in 6.2 mi North 1.2 mph - N/A Rain , Thunderstorm Light Thunderstorms and Rain
9:50 AM 64.4 °F 60.8 °F 88% 29.74 in 6.2 mi WNW 6.9 mph - N/A   Mostly Cloudy
10:20 AM 66.2 °F 60.8 °F 83% 29.74 in 6.2 mi Variable 2.3 mph - N/A Rain , Thunderstorm Light Thunderstorms and Rain
10:50 AM 64.4 °F 60.8 °F 88% 29.74 in 6.2 mi WNW 6.9 mph - N/A Rain , Thunderstorm Light Thunderstorms and Rain
11:20 AM 62.6 °F 60.8 °F 94% 29.77 in 6.2 mi SSE 4.6 mph - N/A   Mostly Cloudy
11:50 AM 64.4 °F 60.8 °F 88% 29.77 in 6.2 mi ENE 6.9 mph - N/A   Mostly Cloudy
12:20 PM 66.2 °F 59.0 °F 78% 29.77 in 6.2 mi ESE 8.1 mph - N/A   Mostly Cloudy
12:50 PM 66.2 °F 60.8 °F 83% 29.77 in 6.2 mi East 9.2 mph - N/A   Mostly Cloudy
1:20 PM 66.2 °F 60.8 °F 83% 29.77 in 6.2 mi East 8.1 mph - N/A   Mostly Cloudy
1:50 PM 68.0 °F 59.0 °F 73% 29.74 in 6.2 mi ESE 10.4 mph - N/A   Mostly Cloudy
2:20 PM 71.6 °F 57.2 °F 60% 29.74 in 6.2 mi SE 10.4 mph - N/A   Mostly Cloudy
2:50 PM 71.6 °F 55.4 °F 57% 29.74 in 6.2 mi SSE 8.1 mph - N/A   Mostly Cloudy
3:20 PM 71.6 °F 53.6 °F 53% 29.74 in 6.2 mi South 11.5 mph - N/A   Mostly Cloudy
3:50 PM 71.6 °F 55.4 °F 57% 29.74 in 6.2 mi SSW 8.1 mph - N/A   Mostly Cloudy
4:20 PM 71.6 °F 55.4 °F 57% 29.74 in 6.2 mi SSE 9.2 mph - N/A   Mostly Cloudy
4:50 PM 69.8 °F 53.6 °F 56% 29.74 in 6.2 mi South 11.5 mph - N/A   Mostly Cloudy
5:20 PM 69.8 °F 57.2 °F 64% 29.74 in 6.2 mi SSE 9.2 mph - N/A   Mostly Cloudy
5:50 PM 68.0 °F 57.2 °F 68% 29.74 in 6.2 mi ESE 9.2 mph - N/A   Mostly Cloudy
6:20 PM 66.2 °F 57.2 °F 73% 29.74 in 6.2 mi ESE 6.9 mph - N/A   Mostly Cloudy
6:50 PM 64.4 °F 55.4 °F 73% 29.74 in 6.2 mi ESE 9.2 mph - N/A   Mostly Cloudy
7:20 PM 64.4 °F 55.4 °F 73% 29.77 in 6.2 mi East 4.6 mph - N/A   Mostly Cloudy
7:50 PM 64.4 °F 57.2 °F 77% 29.77 in 6.2 mi SE 8.1 mph - N/A Thunderstorm Thunderstorm
8:20 PM 62.6 °F 57.2 °F 82% 29.77 in 6.2 mi ESE 6.9 mph - N/A Thunderstorm Thunderstorm
8:50 PM 62.6 °F 57.2 °F 82% 29.77 in 6.2 mi ENE 3.5 mph - N/A Thunderstorm Thunderstorm
9:20 PM 62.6 °F 57.2 °F 82% 29.77 in 6.2 mi East 5.8 mph - N/A Thunderstorm Thunderstorm
9:50 PM 62.6 °F 57.2 °F 82% 29.77 in 6.2 mi ESE 6.9 mph - N/A Thunderstorm Thunderstorm
10:20 PM 62.6 °F 57.2 °F 82% 29.80 in 6.2 mi East 5.8 mph - N/A Thunderstorm Thunderstorm
10:50 PM 62.6 °F 57.2 °F 82% 29.77 in 6.2 mi East 8.1 mph - N/A Thunderstorm Thunderstorm
11:20 PM 64.4 °F 55.4 °F 73% 29.77 in 6.2 mi East 9.2 mph - N/A Thunderstorm Thunderstorm
11:50 PM 62.6 °F 55.4 °F 77% 29.80 in 6.2 mi ESE 5.8 mph - N/A Thunderstorm Thunderstorm